Time,TemperatureF,DewpointF,PressureIn,WindDirection,WindDirectionDegrees,WindSpeedMPH,WindSpeedGustMPH,Humidity,HourlyPrecipIn,Conditions,Clouds,dailyrainin,SoftwareType,DateUTC
2013-03-22 00:13:00,30.4,30.1,29.65,SW,225,1.6,-999.0,99,-99.99,,,0.00,Acu-Link.com,2013-03-22 04:13:00,
2013-03-22 00:29:00,30.7,30.5,29.65,West,270,6.3,-999.0,99,-99.99,,,0.00,Acu-Link.com,2013-03-22 04:29:00,
2013-03-22 00:44:00,30.9,30.7,29.65,North,0,4.3,-999.0,99,-99.99,,,0.00,Acu-Link.com,2013-03-22 04:44:00,
2013-03-22 00:59:00,30.9,30.7,29.66,WNW,292,2.7,-999.0,99,-99.99,,,0.00,Acu-Link.com,2013-03-22 04:59:00,
2013-03-22 01:14:00,30.7,30.5,29.66,NNW,337,6.3,-999.0,99,-99.99,,,0.00,Acu-Link.com,2013-03-22 05:14:00,
2013-03-22 01:29:00,30.6,30.3,29.66,NW,315,4.3,-999.0,99,-99.99,,,0.00,Acu-Link.com,2013-03-22 05:29:00,
2013-03-22 01:45:00,30.4,30.1,29.66,WNW,292,4.3,-999.0,99,-99.99,,,0.00,Acu-Link.com,2013-03-22 05:45:00,
2013-03-22 02:00:00,30.0,29.8,29.67,WNW,292,7.4,-999.0,99,-99.99,,,0.00,Acu-Link.com,2013-03-22 06:00:00,
2013-03-22 02:15:00,30.0,29.8,29.67,NNW,337,2.7,-999.0,99,-99.99,,,0.00,Acu-Link.com,2013-03-22 06:15:00,
2013-03-22 02:30:00,29.7,29.4,29.66,WNW,292,8.3,-999.0,99,-99.99,,,0.00,Acu-Link.com,2013-03-22 06:30:00,
2013-03-22 02:45:00,29.5,29.2,29.67,North,0,4.7,-999.0,99,-99.99,,,0.00,Acu-Link.com,2013-03-22 06:45:00,
2013-03-22 03:16:00,28.8,28.5,29.66,WNW,292,5.8,-999.0,99,-99.99,,,0.00,Acu-Link.com,2013-03-22 07:16:00,
2013-03-22 03:31:00,28.2,28.0,29.66,NE,45,5.8,-999.0,99,-99.99,,,0.00,Acu-Link.com,2013-03-22 07:31:00,
2013-03-22 04:01:00,27.7,27.4,29.66,WNW,292,3.8,-999.0,99,-99.99,,,0.00,Acu-Link.com,2013-03-22 08:01:00,
2013-03-22 04:17:00,27.5,27.3,29.66,NW,315,4.3,-999.0,99,-99.99,,,0.00,Acu-Link.com,2013-03-22 08:17:00,
2013-03-22 04:32:00,27.0,26.7,29.66,West,270,4.3,-999.0,99,-99.99,,,0.00,Acu-Link.com,2013-03-22 08:32:00,
2013-03-22 04:47:00,26.6,26.4,29.65,West,270,9.4,-999.0,99,-99.99,,,0.00,Acu-Link.com,2013-03-22 08:47:00,
2013-03-22 05:02:00,26.4,26.2,29.66,WSW,247,4.7,-999.0,99,-99.99,,,0.00,Acu-Link.com,2013-03-22 09:02:00,
2013-03-22 05:17:00,26.2,26.0,29.66,West,270,7.8,-999.0,99,-99.99,,,0.00,Acu-Link.com,2013-03-22 09:17:00,
2013-03-22 05:32:00,26.1,25.8,29.67,WSW,247,8.9,-999.0,99,-99.99,,,0.00,Acu-Link.com,2013-03-22 09:32:00,
2013-03-22 05:48:00,26.1,25.8,29.67,NNE,22,6.3,-999.0,99,-99.99,,,0.00,Acu-Link.com,2013-03-22 09:48:00,
2013-03-22 06:03:00,25.9,25.6,29.67,West,270,7.8,-999.0,99,-99.99,,,0.00,Acu-Link.com,2013-03-22 10:03:00,
2013-03-22 06:18:00,25.7,25.5,29.68,WSW,247,3.1,-999.0,99,-99.99,,,0.00,Acu-Link.com,2013-03-22 10:18:00,
2013-03-22 06:33:00,25.5,25.3,29.68,West,270,1.1,-999.0,99,-99.99,,,0.00,Acu-Link.com,2013-03-22 10:33:00,
2013-03-22 06:49:00,25.3,25.1,29.68,West,270,6.7,-999.0,99,-99.99,,,0.00,Acu-Link.com,2013-03-22 10:49:00,
2013-03-22 07:04:00,25.5,25.3,29.70,WSW,247,3.1,-999.0,99,-99.99,,,0.00,Acu-Link.com,2013-03-22 11:04:00,
2013-03-22 07:19:00,25.7,25.5,29.70,West,270,7.8,-999.0,99,-99.99,,,0.00,Acu-Link.com,2013-03-22 11:19:00,
2013-03-22 07:34:00,26.8,26.5,29.71,NW,315,6.3,-999.0,99,-99.99,,,0.00,Acu-Link.com,2013-03-22 11:34:00,
2013-03-22 07:49:00,27.1,26.9,29.71,SSE,157,2.2,-999.0,99,-99.99,,,0.00,Acu-Link.com,2013-03-22 11:49:00,
2013-03-22 08:05:00,27.9,27.6,29.71,WSW,247,6.7,-999.0,99,-99.99,,,0.00,Acu-Link.com,2013-03-22 12:05:00,
2013-03-22 08:20:00,28.0,27.8,29.72,WSW,247,4.3,-999.0,99,-99.99,,,0.00,Acu-Link.com,2013-03-22 12:20:00,
2013-03-22 08:35:00,29.7,29.4,29.72,West,270,5.1,-999.0,99,-99.99,,,0.00,Acu-Link.com,2013-03-22 12:35:00,
2013-03-22 08:50:00,30.6,30.3,29.73,North,0,4.7,-999.0,99,-99.99,,,0.00,Acu-Link.com,2013-03-22 12:50:00,
2013-03-22 09:05:00,31.5,31.2,29.73,NNW,337,6.7,-999.0,99,-99.99,,,0.00,Acu-Link.com,2013-03-22 13:05:00,
2013-03-22 09:21:00,32.0,31.8,29.73,NNW,337,4.7,-999.0,99,-99.99,,,0.00,Acu-Link.com,2013-03-22 13:21:00,
2013-03-22 09:51:00,33.8,33.5,29.73,East,90,4.3,-999.0,99,-99.99,,,0.00,Acu-Link.com,2013-03-22 13:51:00,
2013-03-22 10:06:00,34.9,34.6,29.73,NNW,337,3.8,-999.0,99,-99.99,,,0.00,Acu-Link.com,2013-03-22 14:06:00,
2013-03-22 10:21:00,36.3,36.1,29.73,NW,315,6.7,-999.0,99,-99.99,,,0.00,Acu-Link.com,2013-03-22 14:21:00,
2013-03-22 10:37:00,37.4,37.1,29.72,WSW,247,3.8,-999.0,99,-99.99,,,0.00,Acu-Link.com,2013-03-22 14:37:00,
2013-03-22 10:52:00,37.8,37.5,29.72,NNW,337,4.7,-999.0,99,-99.99,,,0.00,Acu-Link.com,2013-03-22 14:52:00,
2013-03-22 11:07:00,38.8,38.6,29.73,NNW,337,3.1,-999.0,99,-99.99,,,0.00,Acu-Link.com,2013-03-22 15:07:00,
2013-03-22 11:22:00,39.9,39.7,29.73,WSW,247,8.3,-999.0,99,-99.99,,,0.00,Acu-Link.com,2013-03-22 15:22:00,
2013-03-22 11:38:00,39.9,39.7,29.73,NNE,22,3.8,-999.0,99,-99.99,,,0.00,Acu-Link.com,2013-03-22 15:38:00,
2013-03-22 11:53:00,40.5,40.2,29.73,SW,225,8.9,-999.0,99,-99.99,,,0.00,Acu-Link.com,2013-03-22 15:53:00,
2013-03-22 12:08:00,41.4,41.1,29.72,West,270,8.3,-999.0,99,-99.99,,,0.00,Acu-Link.com,2013-03-22 16:08:00,
2013-03-22 12:23:00,40.8,40.6,29.72,NNW,337,11.0,-999.0,99,-99.99,,,0.00,Acu-Link.com,2013-03-22 16:23:00,
2013-03-22 12:38:00,41.9,41.6,29.72,NW,315,4.3,-999.0,99,-99.99,,,0.00,Acu-Link.com,2013-03-22 16:38:00,
2013-03-22 12:54:00,39.4,39.1,29.72,West,270,7.8,-999.0,99,-99.99,,,0.00,Acu-Link.com,2013-03-22 16:54:00,
2013-03-22 13:09:00,41.2,40.9,29.72,NW,315,6.3,-999.0,99,-99.99,,,0.00,Acu-Link.com,2013-03-22 17:09:00,
2013-03-22 13:24:00,43.0,42.7,29.72,WNW,292,6.7,-999.0,99,-99.99,,,0.00,Acu-Link.com,2013-03-22 17:24:00,
2013-03-22 13:39:00,39.7,39.5,29.71,WSW,247,8.3,-999.0,99,-99.99,,,0.00,Acu-Link.com,2013-03-22 17:39:00,
2013-03-22 13:54:00,39.9,39.7,29.70,WSW,247,8.3,-999.0,99,-99.99,,,0.00,Acu-Link.com,2013-03-22 17:54:00,
2013-03-22 14:10:00,39.4,39.1,29.71,SW,225,4.7,-999.0,99,-99.99,,,0.00,Acu-Link.com,2013-03-22 18:10:00,
2013-03-22 14:25:00,42.3,42.0,29.70,West,270,7.8,-999.0,99,-99.99,,,0.00,Acu-Link.com,2013-03-22 18:25:00,
2013-03-22 14:40:00,43.9,43.6,29.70,South,180,11.0,-999.0,99,-99.99,,,0.00,Acu-Link.com,2013-03-22 18:40:00,
2013-03-22 14:55:00,40.8,40.6,29.70,WSW,247,4.3,-999.0,99,-99.99,,,0.00,Acu-Link.com,2013-03-22 18:55:00,
2013-03-22 15:10:00,41.9,41.6,29.70,West,270,4.3,-999.0,99,-99.99,,,0.00,Acu-Link.com,2013-03-22 19:10:00,
2013-03-22 15:56:00,40.5,40.2,29.70,West,270,6.7,-999.0,99,-99.99,,,0.00,Acu-Link.com,2013-03-22 19:56:00,
2013-03-22 16:11:00,40.8,40.6,29.70,West,270,8.3,-999.0,99,-99.99,,,0.00,Acu-Link.com,2013-03-22 20:11:00,
2013-03-22 16:27:00,40.8,40.6,29.70,West,270,9.8,-999.0,99,-99.99,,,0.00,Acu-Link.com,2013-03-22 20:27:00,
2013-03-22 16:42:00,40.3,40.0,29.71,WSW,247,4.3,-999.0,99,-99.99,,,0.00,Acu-Link.com,2013-03-22 20:42:00,
2013-03-22 16:57:00,40.1,39.8,29.71,West,270,9.4,-999.0,99,-99.99,,,0.00,Acu-Link.com,2013-03-22 20:57:00,
2013-03-22 17:12:00,39.7,39.5,29.72,NE,45,5.8,-999.0,99,-99.99,,,0.00,Acu-Link.com,2013-03-22 21:12:00,
2013-03-22 17:27:00,39.7,39.5,29.71,West,270,7.4,-999.0,99,-99.99,,,0.00,Acu-Link.com,2013-03-22 21:27:00,
2013-03-22 17:43:00,39.7,39.5,29.72,WSW,247,5.1,-999.0,99,-99.99,,,0.00,Acu-Link.com,2013-03-22 21:43:00,
2013-03-22 17:58:00,39.9,39.7,29.72,WSW,247,5.1,-999.0,99,-99.99,,,0.00,Acu-Link.com,2013-03-22 21:58:00,
2013-03-22 18:13:00,38.8,38.6,29.72,West,270,7.4,-999.0,99,-99.99,,,0.00,Acu-Link.com,2013-03-22 22:13:00,
2013-03-22 18:28:00,38.8,38.6,29.73,WNW,292,4.3,-999.0,99,-99.99,,,0.00,Acu-Link.com,2013-03-22 22:28:00,
2013-03-22 18:43:00,39.0,38.8,29.73,West,270,6.3,-999.0,99,-99.99,,,0.00,Acu-Link.com,2013-03-22 22:43:00,
2013-03-22 18:59:00,38.5,38.2,29.74,SW,225,9.4,-999.0,99,-99.99,,,0.00,Acu-Link.com,2013-03-22 22:59:00,
2013-03-22 19:14:00,37.8,37.5,29.75,WSW,247,7.4,-999.0,99,-99.99,,,0.00,Acu-Link.com,2013-03-22 23:14:00,
2013-03-22 19:29:00,37.2,37.0,29.76,West,270,6.7,-999.0,99,-99.99,,,0.00,Acu-Link.com,2013-03-22 23:29:00,
2013-03-22 19:44:00,36.7,36.4,29.76,West,270,9.4,-999.0,99,-99.99,,,0.00,Acu-Link.com,2013-03-22 23:44:00,
2013-03-22 19:59:00,36.3,36.1,29.76,SW,225,4.3,-999.0,99,-99.99,,,0.00,Acu-Link.com,2013-03-22 23:59:00,
2013-03-22 20:15:00,36.3,36.1,29.77,WNW,292,7.8,-999.0,99,-99.99,,,0.00,Acu-Link.com,2013-03-23 00:15:00,
2013-03-22 20:30:00,36.0,35.7,29.78,West,270,6.7,-999.0,99,-99.99,,,0.00,Acu-Link.com,2013-03-23 00:30:00,
2013-03-22 20:45:00,35.6,35.3,29.78,South,180,4.7,-999.0,99,-99.99,,,0.00,Acu-Link.com,2013-03-23 00:45:00,
2013-03-22 21:00:00,35.4,35.2,29.78,West,270,5.1,-999.0,99,-99.99,,,0.00,Acu-Link.com,2013-03-23 01:00:00,
2013-03-22 21:16:00,35.1,34.8,29.79,West,270,5.1,-999.0,99,-99.99,,,0.00,Acu-Link.com,2013-03-23 01:16:00,
2013-03-22 21:31:00,34.5,34.3,29.79,West,270,4.3,-999.0,99,-99.99,,,0.00,Acu-Link.com,2013-03-23 01:31:00,
2013-03-22 21:46:00,34.3,34.1,29.79,WNW,292,2.7,-999.0,99,-99.99,,,0.00,Acu-Link.com,2013-03-23 01:46:00,
2013-03-22 22:01:00,34.5,34.3,29.80,West,270,2.7,-999.0,99,-99.99,,,0.00,Acu-Link.com,2013-03-23 02:01:00,
2013-03-22 22:16:00,33.4,33.2,29.80,SW,225,3.8,-999.0,99,-99.99,,,0.00,Acu-Link.com,2013-03-23 02:16:00,
2013-03-22 22:32:00,33.4,33.2,29.80,West,270,2.2,-999.0,99,-99.99,,,0.00,Acu-Link.com,2013-03-23 02:32:00,
2013-03-22 22:47:00,33.4,33.2,29.80,NNW,337,3.8,-999.0,99,-99.99,,,0.00,Acu-Link.com,2013-03-23 02:47:00,
2013-03-22 23:02:00,33.4,33.2,29.81,West,270,7.8,-999.0,99,-99.99,,,0.00,Acu-Link.com,2013-03-23 03:02:00,
2013-03-22 23:17:00,33.1,32.8,29.80,WSW,247,2.2,-999.0,99,-99.99,,,0.00,Acu-Link.com,2013-03-23 03:17:00,
2013-03-22 23:32:00,32.9,32.7,29.80,North,0,2.7,-999.0,99,-99.99,,,0.00,Acu-Link.com,2013-03-23 03:32:00,
2013-03-22 23:48:00,32.9,32.7,29.81,WSW,247,6.3,-999.0,99,-99.99,,,0.00,Acu-Link.com,2013-03-23 03:48:00,